Regional Weather Roundup
Issued by NWS Cleveland, OH

Current Version | Previous Version | Text Only | Print | Product List | Glossary On
Versions: 1 2 3 4 5 6 7 8 9 10 11 12 13 14 15 16 17 18 19 20 21 22 23 24 25 26 27 28 29 30 31 32 33 34 35 36 37 38 39 40 41 42 43 44 45 46 47 48 49 50
000 ASUS41 KCLE 020310 RWRCLE OHIO REGIONAL WEATHER ROUNDUP NATIONAL WEATHER SERVICE WILMINGTON, OH 1000 PM EST SUN MAR 01 2015 NOTE: "FAIR" INDICATES FEW OR NO CLOUDS BELOW 12,000 FEET WITH NO SIGNIFICANT WEATHER AND/OR OBSTRUCTIONS TO VISIBILITY. OHZ001>008-015>018-024>027-034-035-043-044-020400- NORTHWEST OHIO CITY SKY/WX TMP DP RH WIND PRES REMARKS DEFIANCE CLOUDY 21 18 88 VRB3 30.27S FOG FINDLAY PTCLDY 20 17 88 SW7 30.25R FOG WCI 11 TOLEDO EXPRESS MOCLDY 12 11 95 W8 30.25R FOG WCI 0 TOLEDO EXEC MOCLDY 18 14 84 SW8 30.26R FOG WCI 8 LIMA CLOUDY 24 20 84 W9 30.25R FOG WCI 14 $$ OHZ009>014-019>023-028>033-038-089-020400- NORTHEAST OHIO CITY SKY/WX TMP DP RH WIND PRES REMARKS CLE-HOPKINS MOCLDY 22 19 89 W5 30.25R FOG WCI 16 CLE-LAKEFRONT CLOUDY 21 18 88 SW3 30.23R CUY CO. ARPT CLOUDY 23 21 93 NW9 30.22R WCI 13 LORAIN-ELYRIA CLOUDY 22 20 92 W6 30.23R FOG WCI 14 ASHTABULA CLOUDY 23 19 85 W8 30.19R WCI 14 AKRON-CANTON CLOUDY 29 25 85 W13 30.18S FOG WCI 19 WOOSTER CLOUDY 27 23 85 W8 30.21R WCI 19 MANSFIELD MOCLDY 25 22 88 SW9 30.21R WCI 15 YOUNGSTOWN CLOUDY 29 25 85 W12 30.16S WCI 19 $$ OHZ042-051>053-060>062-070>072-077>081-020400- SOUTHWEST OHIO CITY SKY/WX TMP DP RH WIND PRES REMARKS CINC-COVINGTON CLOUDY 33 30 88 W8 30.28S FOG WCI 26 CINC-LUNKEN CLOUDY 34 31 88 SW3 30.31S HAMILTON CLOUDY 33 31 92 W6 30.31R WCI 28 DAYTON CLOUDY 30 26 85 NW9 30.27R WCI 22 WRIGHT-PAT AFB MOCLDY 32 28 86 NW8 30.27S WCI 25 DAYTON GENERAL CLOUDY 31 28 89 W8 30.26R WCI 23 WILMINGTON CLOUDY 32 29 88 W8 30.25F FOG WCI 25 $$ OHZ036-037-039>041-045>050-054>059-063>069-073>076-082>088-020400- CENTRAL AND SOUTHEAST OHIO CITY SKY/WX TMP DP RH WIND PRES REMARKS COLUMBUS CLOUDY 32 31 96 NW10 30.25R WCI 24 OSU AIRPORT CLOUDY 31 27 85 W9 30.25R WCI 23 BOLTON FIELD CLOUDY N/A N/A N/A W5 30.25S RICKENBACK AFB CLOUDY 32 31 96 W6 30.25S FOG WCI 26 NEWARK CLOUDY 34 29 82 MISG 30.24R MARION MOCLDY 23 20 88 W6 30.24S FOG WCI 16 LANCASTER CLOUDY 33 31 92 W7 30.25S FOG WCI 27 ZANESVILLE CLOUDY 33 30 88 W7 30.22R WCI 27 NEW PHILLY CLOUDY 34 30 85 W6 30.22R FOG WCI 29 $$

USA.gov is the U.S. government's official web portal to all federal, state and local government web resources and services.